| time (UTC) | temp F | wind direction | speed knots | gust knots | rain 1hr in | rain 24hr in | rain mn in | humidity % | barometer mb |
| 20260505213352 | 84 | 235 | 4.3 | 13.0 | 0.00 | 0.00 | 0.00 | 26 | 1007.6 |
| 20260505211143 | 84 | 307 | 2.6 | 10.4 | 0.00 | 0.00 | 0.00 | 27 | 1007.6 |
| 20260505205028 | 84 | 174 | 6.1 | 18.2 | 0.00 | 0.00 | 0.00 | 27 | 1007.6 |
| 20260505204043 | 85 | 317 | 6.1 | 17.4 | 0.00 | 0.00 | 0.00 | 27 | 1007.6 |
| 20260505203101 | 85 | 214 | 6.1 | 17.4 | 0.00 | 0.00 | 0.00 | 26 | 1007.7 |
| 20260505202041 | 86 | 42 | 4.3 | 18.2 | 0.00 | 0.00 | 0.00 | 26 | 1007.5 |
| 20260505201059 | 86 | 205 | 6.1 | 18.2 | 0.00 | 0.00 | 0.00 | 27 | 1007.6 |
| 20260505200109 | 85 | 182 | 7.0 | 18.2 | 0.00 | 0.00 | 0.00 | 27 | 1007.7 |
| 20260505195126 | 86 | 209 | 4.3 | 15.6 | 0.00 | 0.00 | 0.00 | 28 | 1007.8 |
| 20260505194136 | 86 | 199 | 5.2 | 19.1 | 0.00 | 0.00 | 0.00 | 29 | 1007.9 |
| 20260505193154 | 85 | 179 | 5.2 | 19.1 | 0.00 | 0.00 | 0.00 | 29 | 1008.0 |
| 20260505192158 | 86 | 201 | 6.1 | 17.4 | 0.00 | 0.00 | 0.00 | 28 | 1008.1 |
| 20260505190048 | 86 | 224 | 5.2 | 17.4 | 0.00 | 0.00 | 0.00 | 26 | 1008.4 |
| 20260505185025 | 85 | 274 | 5.2 | 15.6 | 0.00 | 0.00 | 0.00 | 28 | 1008.6 |
| 20260505184034 | 85 | 161 | 6.1 | 16.5 | 0.00 | 0.00 | 0.00 | 29 | 1008.8 |
| 20260505180756 | 86 | 180 | 4.3 | 17.4 | 0.00 | 0.00 | 0.00 | 30 | 1009.2 |
| 20260505175744 | 86 | 221 | 5.2 | 17.4 | 0.00 | 0.00 | 0.00 | 28 | 1009.3 |
| 20260505173633 | 86 | 201 | 5.2 | 16.5 | 0.00 | 0.00 | 0.00 | 30 | 1009.5 |
| 20260505171459 | 85 | 212 | 4.3 | 12.2 | 0.00 | 0.00 | 0.00 | 29 | 1009.6 |
| 20260505170520 | 84 | 263 | 4.3 | 12.2 | 0.00 | 0.00 | 0.00 | 31 | 1009.7 |
| 20260505165535 | 83 | 255 | 3.5 | 11.3 | 0.00 | 0.00 | 0.00 | 36 | 1009.8 |
| 20260505164539 | 83 | 228 | 3.5 | 11.3 | 0.00 | 0.00 | 0.00 | 36 | 1009.9 |
| 20260505163532 | 81 | 260 | 4.3 | 9.6 | 0.00 | 0.00 | 0.00 | 39 | 1010.1 |
| 20260505162530 | 82 | 229 | 3.5 | 10.4 | 0.00 | 0.00 | 0.00 | 38 | 1010.3 |
| 20260505161533 | 81 | 198 | 3.5 | 10.4 | 0.00 | 0.00 | 0.00 | 40 | 1010.6 |
| 20260505160517 | 81 | 194 | 3.5 | 9.6 | 0.00 | 0.00 | 0.00 | 39 | 1010.6 |
| 20260505152333 | 80 | 257 | 2.6 | 8.7 | 0.00 | 0.00 | 0.00 | 42 | 1011.0 |
| 20260505150212 | 78 | 200 | 4.3 | 9.6 | 0.00 | 0.00 | 0.00 | 42 | 1010.9 |
| 20260505124526 | 71 | 279 | 2.6 | 7.0 | 0.00 | 0.00 | 0.00 | 47 | 1011.2 |
| 20260505123509 | 69 | 215 | 2.6 | 7.8 | 0.00 | 0.00 | 0.00 | 48 | 1011.2 |
| 20260505122437 | 69 | 227 | 2.6 | 7.8 | 0.00 | 0.00 | 0.00 | 48 | 1011.3 |
| 20260505121404 | 68 | 259 | 2.6 | 7.0 | 0.00 | 0.00 | 0.00 | 50 | 1011.3 |
| 20260505120410 | 67 | 235 | 1.7 | 7.0 | 0.00 | 0.00 | 0.00 | 51 | 1011.1 |
| 20260505115348 | 65 | 226 | 0.9 | 5.2 | 0.00 | 0.00 | 0.00 | 54 | 1011.0 |
| 20260505113154 | 63 | 189 | 1.7 | 5.2 | 0.00 | 0.00 | 0.00 | 56 | 1010.8 |
| 20260505110944 | 62 | 235 | 0.9 | 8.7 | 0.00 | 0.00 | 0.00 | 57 | 1010.6 |
| 20260505101832 | 61 | 214 | 1.7 | 7.8 | 0.00 | 0.00 | 0.00 | 58 | 1010.1 |
| 20260505100854 | 61 | 188 | 1.7 | 7.8 | 0.00 | 0.00 | 0.00 | 59 | 1010.1 |
| 20260505095846 | 61 | 169 | 2.6 | 7.8 | 0.00 | 0.00 | 0.00 | 58 | 1010.1 |
| 20260505094831 | 62 | 213 | 2.6 | 7.0 | 0.00 | 0.00 | 0.00 | 58 | 1010.0 |
| 20260505093801 | 62 | 189 | 1.7 | 6.1 | 0.00 | 0.00 | 0.00 | 58 | 1009.9 |
| 20260505091601 | 62 | 173 | 2.6 | 7.0 | 0.00 | 0.00 | 0.00 | 58 | 1009.7 |
| 20260505090548 | 62 | 149 | 2.6 | 7.0 | 0.00 | 0.00 | 0.00 | 58 | 1009.6 |
| 20260505085523 | 62 | 234 | 1.7 | 7.8 | 0.00 | 0.00 | 0.00 | 58 | 1009.7 |
| 20260505084513 | 62 | 167 | 2.6 | 7.8 | 0.00 | 0.00 | 0.00 | 59 | 1009.7 |
| 20260505083501 | 62 | 161 | 2.6 | 7.8 | 0.00 | 0.00 | 0.00 | 60 | 1009.7 |
| 20260505081254 | 62 | 178 | 3.5 | 7.8 | 0.00 | 0.00 | 0.00 | 61 | 1009.7 |
| 20260505080237 | 62 | 163 | 2.6 | 7.8 | 0.00 | 0.00 | 0.00 | 61 | 1009.7 |
| 20260505075215 | 62 | 161 | 2.6 | 7.0 | 0.00 | 0.00 | 0.00 | 61 | 1009.6 |
| 20260505074210 | 62 | 217 | 2.6 | 6.1 | 0.00 | 0.00 | 0.00 | 61 | 1009.6 |
| 20260505072112 | 62 | 181 | 3.5 | 7.0 | 0.00 | 0.00 | 0.00 | 61 | 1009.6 |
| 20260505071043 | 62 | 185 | 1.7 | 4.3 | 0.00 | 0.00 | 0.00 | 60 | 1009.5 |
| 20260505070047 | 62 | 166 | 1.7 | 6.1 | 0.00 | 0.00 | 0.00 | 60 | 1009.4 |
| 20260505065021 | 63 | 163 | 1.7 | 6.1 | 0.00 | 0.00 | 0.00 | 60 | 1009.4 |
| 20260505064004 | 63 | 182 | 1.7 | 4.3 | 0.00 | 0.00 | 0.00 | 59 | 1009.4 |
| 20260505062940 | 63 | 175 | 0.9 | 4.3 | 0.00 | 0.00 | 0.00 | 59 | 1009.4 |
| 20260505060806 | 63 | 190 | 0.9 | 5.2 | 0.00 | 0.00 | 0.00 | 59 | 1009.4 |
| 20260505054616 | 64 | 173 | 0.9 | 5.2 | 0.00 | 0.00 | 0.00 | 58 | 1009.5 |
| 20260505053556 | 64 | 195 | 0.0 | 3.5 | 0.00 | 0.00 | 0.00 | 58 | 1009.5 |
| 20260505052544 | 64 | 196 | 0.0 | 3.5 | 0.00 | 0.00 | 0.00 | 57 | 1009.5 |
| 20260505051543 | 65 | 166 | 0.0 | 2.6 | 0.00 | 0.00 | 0.00 | 56 | 1009.6 |
| 20260505050537 | 65 | 166 | 0.0 | 2.6 | 0.00 | 0.00 | 0.00 | 55 | 1009.5 |
| 20260505041438 | 66 | 227 | 0.0 | 5.2 | 0.00 | 0.00 | 0.00 | 52 | 1009.8 |
| 20260505040409 | 66 | 196 | 0.9 | 5.2 | 0.00 | 0.00 | 0.00 | 51 | 1009.7 |
| 20260505035352 | 67 | 206 | 0.9 | 5.2 | 0.00 | 0.00 | 0.00 | 50 | 1009.6 |
| 20260505034332 | 67 | 196 | 0.0 | 4.3 | 0.00 | 0.00 | 0.00 | 49 | 1009.6 |
| 20260505033339 | 67 | 180 | 0.9 | 4.3 | 0.00 | 0.00 | 0.00 | 49 | 1009.6 |
| 20260505032328 | 68 | 214 | 0.9 | 6.1 | 0.00 | 0.00 | 0.00 | 48 | 1009.5 |
| 20260505030141 | 69 | 188 | 0.0 | 4.3 | 0.00 | 0.00 | 0.00 | 47 | 1009.6 |
| 20260505025143 | 69 | 190 | 0.9 | 5.2 | 0.00 | 0.00 | 0.00 | 46 | 1009.5 |
| 20260505021944 | 70 | 215 | 0.9 | 6.1 | 0.00 | 0.00 | 0.00 | 44 | 1009.5 |
| 20260505020914 | 70 | 230 | 1.7 | 6.1 | 0.00 | 0.00 | 0.00 | 44 | 1009.4 |
| 20260505014752 | 71 | 186 | 1.7 | 4.3 | 0.00 | 0.00 | 0.00 | 43 | 1009.3 |
| 20260505013757 | 71 | 210 | 0.0 | 5.2 | 0.00 | 0.00 | 0.00 | 42 | 1009.2 |
| 20260505012735 | 71 | 191 | 0.9 | 5.2 | 0.00 | 0.00 | 0.00 | 42 | 1009.0 |
| 20260505011747 | 72 | 180 | 1.7 | 7.0 | 0.00 | 0.00 | 0.00 | 41 | 1009.0 |
| 20260505005712 | 72 | 192 | 0.0 | 3.5 | 0.00 | 0.00 | 0.00 | 41 | 1008.9 |
| 20260505004700 | 72 | 178 | 0.9 | 5.2 | 0.00 | 0.00 | 0.00 | 41 | 1008.8 |
| 20260505003657 | 73 | 196 | 0.9 | 5.2 | 0.00 | 0.00 | 0.00 | 40 | 1008.8 |
| 20260505002707 | 73 | 203 | 0.9 | 5.2 | 0.00 | 0.00 | 0.00 | 39 | 1008.6 |
| 20260505001654 | 74 | 189 | 1.7 | 6.1 | 0.00 | 0.00 | 0.00 | 39 | 1008.6 |
| 20260505000640 | 74 | 281 | 1.7 | 11.3 | 0.00 | 0.00 | 0.00 | 38 | 1008.6 |
| 20260504235607 | 74 | 169 | 1.7 | 14.8 | 0.00 | 0.00 | 0.00 | 38 | 1008.5 |
| 20260504234555 | 74 | 213 | 2.6 | 14.8 | 0.00 | 0.00 | 0.00 | 37 | 1008.6 |
| 20260504233537 | 75 | 230 | 2.6 | 7.8 | 0.00 | 0.00 | 0.00 | 36 | 1008.4 |
| 20260504232505 | 75 | 231 | 2.6 | 12.2 | 0.00 | 0.00 | 0.00 | 36 | 1008.4 |
| 20260504231448 | 75 | 165 | 4.3 | 12.2 | 0.00 | 0.00 | 0.00 | 35 | 1008.3 |
| 20260504230442 | 76 | 162 | 3.5 | 9.6 | 0.00 | 0.00 | 0.00 | 35 | 1008.3 |
| 20260504224320 | 76 | 156 | 2.6 | 13.0 | 0.00 | 0.00 | 0.00 | 34 | 1008.3 |
| 20260504223248 | 76 | 175 | 4.3 | 13.0 | 0.00 | 0.00 | 0.00 | 34 | 1008.4 |
| 20260504222308 | 76 | 218 | 4.3 | 10.4 | 0.00 | 0.00 | 0.00 | 33 | 1008.4 |
| 20260504220131 | 76 | 96 | 4.3 | 21.7 | 0.00 | 0.00 | 0.00 | 33 | 1008.2 |